Find Starlink 37337

NORAD ID: 68953 Int'l Des: 2026-099 Owner: SPXS Country: US Constellation: starlink operational
LEOCIRCULAR

Live Position

Loading 3D Globe...

About Starlink 37337

Description loading...

Upcoming Passes

Passes for default location (London). Set your location on the main map for personalized predictions.

Altitude History

Loading altitude history...

Two-Line Element Set

1 68953C 26099C 26125.82270833 -.01513500 00000+0 -27015-2 0 1250
2 68953 53.1617 7.3328 0000590 94.7822 52.6934 16.01804186 10
Epoch: May 5, 2026 • Age: 30 hours

Current Status

Altitude 277.6 km
Velocity 7.75 km/s
Sub-Earth Point 46.26°N, 178.39°E
Launch Date May 1, 2026
Age 4 days
Type internet

Technical Details

Classification Payload
Mass 575.00 kg
Dry Mass 530.00 kg
Total Mass 575.00 kg
Length 0.30 m
Diameter 4.10 m
Span 29.00 m
Shape Box + pan
Manufacturer SPXS
Bus Type Starlink V2MO
Phase Status In Orbit
Owner/State SPXS/US

Most Searched